Location: Nashville
(36.1660°N, 86.7840°W)
Time: 07:42:42
(UTC-05:00)

AO-109 - Pass Details

Date: 29 May 2022
Orbit: 477 x 502 km, 60.7° (Epoch: 27 June)

Event Time Altitude Azimuth Distance (km) Brightness Sun altitude
Rises 22:11:05 0° 339° (NNW) 2,597 ? -21.6°
Reaches altitude 10° 22:13:47 10° 359° (N) 1,713 ? -22.0°
Maximum altitude 22:16:30 18° 44° (NE) 1,280 ? -22.3°
Enters shadow 22:16:54 18° 52° (NE) 1,289 ? -22.4°
